Location: Elstree
(51.6403°N, 0.2969°W)
Time: 01:24:37
(UTC+00:00)

Cosmos 1470 Rocket - Pass Details

Date: 03 March 2021
Orbit: 602 x 635 km, 82.5° (Epoch: 11 April)

Event Time Altitude Azimuth Distance (km) Brightness Sun altitude
Rises 18:36:18 0° 173° (S) 2,919 6.9 -8.7°
Reaches altitude 10° 18:38:35 10° 168° (SSE) 2,013 6.1 -9.1°
Maximum altitude 18:42:53 49° 94° (E) 816 3.8 -9.7°
Drops below altitude 10° 18:47:12 10° 20° (NNE) 2,015 6.0 -10.4°
Sets 18:49:29 0° 15° (NNE) 2,922 6.9 -10.8°
